MST,Max TemperatureF,Mean TemperatureF,Min TemperatureF,Max Dew PointF,MeanDew PointF,Min DewpointF,Max Humidity, Mean Humidity, Min Humidity, Max Sea Level PressureIn, Mean Sea Level PressureIn, Min Sea Level PressureIn, Max VisibilityMiles, Mean VisibilityMiles, Min VisibilityMiles, Max Wind SpeedMPH, Mean Wind SpeedMPH, Max Gust SpeedMPH,PrecipitationIn, CloudCover, Events, WindDirDegrees
2013-11-1,59,42,27,25,20,16,78,47,19,30.25,30.04,29.85,10,10,10,18,5,28,0.00,0,,38
2013-11-2,62,42,23,27,24,19,85,56,24,30.32,30.16,29.94,10,10,10,14,4,,0.00,0,,186
2013-11-3,64,48,33,26,23,22,64,41,21,29.91,29.72,29.57,10,10,10,28,7,36,0.00,0,,261
2013-11-4,52,41,30,32,25,19,79,50,29,29.97,29.84,29.62,10,10,10,17,11,25,0.00,2,,175
2013-11-5,55,40,23,35,28,18,89,69,26,30.14,29.91,29.78,10,10,10,18,5,23,0.01,5,,346
2013-11-6,55,34,14,20,14,9,89,53,15,30.39,30.30,30.15,10,10,10,10,4,,0.00,0,,33
2013-11-7,60,40,21,17,15,13,68,41,19,30.48,30.33,30.16,10,10,10,15,6,18,0.00,0,,151
2013-11-8,71,48,24,20,16,9,71,40,9,30.14,29.98,29.80,10,10,10,20,6,28,0.00,0,,47
2013-11-9,64,48,33,24,20,16,67,38,16,30.20,30.07,29.92,10,10,10,10,7,,0.00,0,,58
2013-11-10,63,44,26,30,25,21,85,57,23,30.30,30.21,30.13,10,10,10,9,5,,0.00,0,,56
2013-11-11,66,47,28,27,19,10,75,45,12,30.41,30.25,30.16,10,10,10,14,7,,0.00,0,,64
2013-11-12,51,38,25,26,24,22,88,64,35,30.70,30.57,30.42,10,10,10,13,6,,0.00,0,,236
2013-11-13,59,40,21,28,24,18,89,61,21,30.50,30.26,30.00,10,10,10,14,5,,0.00,0,,97
2013-11-14,57,42,28,25,24,19,82,54,27,30.00,29.93,29.86,10,10,10,18,7,30,0.00,0,,46
2013-11-15,61,41,21,33,24,16,88,56,17,29.86,29.70,29.51,10,10,10,23,8,34,0.00,0,,233
2013-11-16,57,46,36,33,26,18,82,49,23,29.57,29.46,29.39,10,10,10,34,14,44,0.00,0,,228
2013-11-17,61,48,36,24,20,16,57,34,17,30.06,29.77,29.47,10,10,10,18,11,34,0.00,0,,246
2013-11-18,46,34,21,22,19,16,81,56,33,30.24,30.16,30.07,10,10,10,10,5,,0.00,0,,328
2013-11-19,62,44,26,24,21,15,63,35,20,30.04,29.83,29.74,10,10,10,17,8,,0.00,0,,234
2013-11-20,55,42,30,27,24,21,67,49,27,29.83,29.78,29.71,10,10,10,18,8,,0.00,2,,28
2013-11-21,51,35,19,30,23,11,72,62,44,30.36,30.08,29.79,10,10,9,23,9,21,0.00,6,,35
2013-11-22,30,23,16,23,16,10,84,73,61,30.56,30.45,30.35,10,6,0,20,12,21,0.12,8,Fog-Snow,14
2013-11-23,30,24,19,23,20,16,96,82,58,30.61,30.49,30.40,10,6,1,14,8,,0.04,8,Snow,197
2013-11-24,21,16,12,18,15,8,92,87,74,30.49,30.24,29.90,10,5,0,17,10,,0.16,8,Fog-Snow,200
2013-11-25,36,27,18,25,22,14,84,70,55,30.33,30.06,29.84,10,6,1,46,28,60,0.00,7,Rain-Snow,2
2013-11-26,43,30,16,23,17,12,84,66,35,30.48,30.40,30.32,10,10,10,17,7,23,0.00,1,,36
2013-11-27,46,30,15,25,19,11,84,70,39,30.38,30.26,30.14,10,10,10,9,6,,0.00,0,,58
2013-11-28,53,37,21,25,20,12,88,60,20,30.29,30.21,30.13,10,10,10,10,7,,0.00,0,,5
2013-11-29,55,38,21,29,21,13,92,64,23,30.29,30.22,30.12,10,10,10,12,5,,0.00,0,,30
2013-11-30,60,42,24,22,18,15,75,50,20,30.29,30.17,30.04,10,10,10,10,6,,0.00,0,,46